Regional Weather Roundup
Issued by NWS Newport/Morehead, NC

Current Version | Previous Version | Graphics & Text | Print | Product List | Glossary On
Versions: 1 2 3 4 5 6 7 8 9 10 11 12 13 14 15 16 17 18 19 20 21 22 23 24 25 26 27 28 29 30 31 32 33 34 35 36 37 38 39 40 41 42 43 44 45 46 47 48 49 50
000 ASUS42 KMHX 300213 RWRMHX WEATHER ROUNDUP FOR EASTERN NORTH CAROLINA NATIONAL WEATHER SERVICE NEWPORT/MOREHEAD CITY NC 1000 PM EDT FRI MAY 29 2015 NOTE: "FAIR" INDICATES FEW OR NO CLOUDS BELOW 12,000 FEET WITH NO SIGNIFICANT WEATHER AND/OR OBSTRUCTIONS TO VISIBILITY NCZ015>017-031-032-045>047-102-103-300300- NORTH COAST CITY SKY/WX TMP DP RH WIND PRES REMARKS EDENTON CLEAR 74 68 80 SE7 30.23R ELIZABETH CITY CLEAR 74 70 87 SE9 30.23R KITTY HAWK N/A 72 69 90 SE6 30.22S MANTEO CLEAR 72 69 89 SE7 30.24R $$ NCZ045>047-081-094-103-104-300300- CENTRAL COAST CITY SKY/WX TMP DP RH WIND PRES REMARKS FRISCO CLEAR 75 66 73 SE9 30.23R SWANQUARTER N/A 73 N/A N/A SE6 30.21R $$ NCZ095-097-098-100-101-300300- SOUTHERN COAST CITY SKY/WX TMP DP RH WIND PRES REMARKS BEAUFORT CLEAR 75 67 76 SE8 30.22R CEDAR ISLAND N/A 75 N/A N/A E12 30.27S JACKSONVILLE CLEAR 74 68 81 SE8 30.21R PINEY ISLAND CLEAR N/A N/A N/A SE5 30.22R WILMINGTON PTCLDY 75 67 76 E5 30.20R $$ NCZ011>013-027>030-043-044-078>080-089-090>093-098-300300- COASTAL PLAIN CITY SKY/WX TMP DP RH WIND PRES REMARKS AHOSKIE CLEAR 72 67 85 SE3 30.22R CLINTON CLEAR 74 68 82 SE3 30.21R ELIZABETHTOWN CLEAR 73 66 76 CALM 30.20R GOLDSBORO PTCLDY 75 66 73 CALM 30.19R GREENVILLE CLEAR 75 68 78 SE6 30.23R HAVELOCK CLEAR 72 66 81 SE3 30.23R KENANSVILLE CLEAR 72 65 80 CALM 30.22S KINSTON NOT AVBL NEW BERN CLEAR 71 66 84 CALM 30.23R RICHLANDS CLEAR 72 64 78 CALM 30.22R ROCKY MOUNT PTCLDY 77 67 71 SE6 30.21R WASHINGTON CLEAR 73 67 82 SE6 30.23R WHITEVILLE CLEAR 73 67 80 CALM 30.20R $$ AMZ130-135-150-152-154-156-158-170-250-252-270-ANZ085-086-088-633-658-670-300300- MARINE OBSERVATIONS STATION/POSITION TIME TEMP WIND PRES WAVE SWELL AIR SEA DIR/SP/G HT/PER HT/PER (UTC) (F) (DEG/KT/KT) (MB) (FT/S) (FT/S) CHESAPEAKE LIGHT 0100 69 140/ 19/ 19 1023.7 64 E VA BEACH 0150 69 68 110/ 8/ 10 1023.6 3/ 9 3/ 9 DUCK 0100 70 59 120/ 12/ 13 1022.3 2 E DUCK 0111 67 N/A 2/ 9 OREGON INLET 0100 73 79 80/ 7/ 9 1023.4 13E OREGON INLT 0200 75 N/A 3/ 9 HATTERAS CG 0100 76 79 110/ 6/ 8 1022.9 DIAMOND BUOY 0150 76 80 120/ 10/ 12 1023.7 3/ 9 3/ 9 CAPE LOOKOUT 0200 75 120/ 10/ 11 1023.1 BEAUFORT LAB 0100 76 77 130/ 9/ 12 1022.1 27 SE WRIGHTSVLE 0100 76 130/ 10/ 12 N/A 5 SE WRIGHTSVLE NOT AVBL 225 S CAPE HAT 0150 75 75 90/ 16/ 17 1022.1 6/ 9 3/ 9 41 SE CHARLESTON 0150 78 78 90/ 12/ 16 1021.0 4/ 7 3/ 7 $$

USA.gov is the U.S. government's official web portal to all federal, state and local government web resources and services.